Location: Fort Worth, Tx
(32.7431°N, 97.3695°W)
Time: 10:29:19
(UTC-04:00)

Courier 1B - Pass Details

Date: 25 February 2024
Orbit: 962 x 1208 km, 28.3° (Epoch: 24 April)

Event Time Altitude Azimuth Distance (km) Brightness Sun altitude
Exits shadow 04:39:05 18° 115° (ESE) 2,255 9.7 -43.0°
Drops below altitude 10° 04:40:39 10° 111° (ESE) 2,784 10.3 -42.7°
Sets 04:43:27 0° 107° (ESE) 3,769 11.2 -42.2°
